Tanner, AL

4:40 AM CST on February 28, 2017 (GMT -0600)
Pryor Regional

Weather History for KDCU - December, 2012

Change the Weather History Date:

Monday, December 24, 2012

  Actual Average Record
Temperature  
Mean Temperature 52 °F -  
Max Temperature 62 °F 49 °F 76 °F (1964)
Min Temperature 43 °F 29 °F 0 °F (1989)
Degree Days  
Heating Degree Days 12    
Growing Degree Days 2 (Base 50)    
Moisture  
Dew Point 51 °F    
Average Humidity 90    
Maximum Humidity 100    
Minimum Humidity 62    
Precipitation  
Precipitation 0.17 in - - ()
Sea Level Pressure  
Sea Level Pressure 29.88 in    
Wind  
Wind Speed 10 mph (WSW)    
Max Wind Speed 16 mph    
Max Gust Speed -    
Visibility 8 miles    
Events      
Averages and records for this station are not official NWS values.
T = Trace of Precipitation, MM = Missing Value Source: NWS Daily Summary

Daily Weather History Graph

Daily Weather History Graph

Search for Another Location

Airport or City:

Trip Planner

Search our weather history database for the weather conditions in past years. The results will help you decide how hot, cold, wet, or windy it might be!

Date:

Astronomy

Dec. 24, 2012 Rise Set
Actual Time 6:52 AM CST 4:42 PM CST
Civil Twilight 6:24 AM CST 5:10 PM CST
Nautical Twilight 5:53 AM CST 5:42 PM CST
Astronomical Twilight 5:22 AM CST 6:13 PM CST
Moon 2:07 PM CST (12/24) 3:33 AM CST (12/24)
Length of Visible Light 10h 46m
Length of Day
9h 50m
Waxing Gibbous, 88% of the Moon is Illuminated
Dec 24
Waxing Gibbous
Dec 28
Full
Jan 4
Last Quarter
Jan 11
New
Jan 18
First Quarter

Hourly Weather History & Observations

Time (CST) Temp. Windchill Dew Point Humidity Pressure Visibility Wind Dir Wind Speed Gust Speed Precip Events Conditions
12:41 AM 50.0 °F - 48.2 °F 94% 29.91 in 10.0 mi South 13.8 mph - N/A   Overcast
12:53 AM 50.0 °F - 48.0 °F 93% 29.90 in 8.0 mi South 16.1 mph - 0.01 in   Overcast
1:53 AM 51.1 °F - 48.9 °F 92% 29.89 in 9.0 mi South 16.1 mph - 0.07 in   Overcast
2:53 AM 52.0 °F - 50.0 °F 93% 29.87 in 10.0 mi South 13.8 mph - N/A   Overcast
3:53 AM 52.0 °F - 51.1 °F 97% 29.84 in 10.0 mi South 15.0 mph - N/A   Overcast
4:53 AM 53.1 °F - 52.0 °F 96% 29.83 in 9.0 mi SSW 11.5 mph - N/A   Overcast
5:53 AM 53.1 °F - 52.0 °F 96% 29.83 in 8.0 mi South 10.4 mph - N/A   Overcast
6:53 AM 54.0 °F - 53.1 °F 97% 29.83 in 8.0 mi South 9.2 mph - N/A   Overcast
7:53 AM 54.0 °F - 53.1 °F 97% 29.83 in 6.0 mi South 8.1 mph - N/A   Overcast
8:13 AM 55.4 °F - 53.6 °F 94% 29.83 in 7.0 mi South 9.2 mph - N/A   Overcast
8:53 AM 55.9 °F - 55.0 °F 97% 29.85 in 8.0 mi SSW 6.9 mph - N/A   Overcast
9:07 AM 55.4 °F - 55.4 °F 100% 29.85 in 8.0 mi SSW 6.9 mph - N/A   Overcast
9:53 AM 57.9 °F - 55.0 °F 90% 29.86 in 8.0 mi SSW 5.8 mph - N/A   Overcast
10:30 AM 57.2 °F - 55.4 °F 94% 29.87 in 2.5 mi West 4.6 mph - 0.02 in   Overcast
10:38 AM 57.2 °F - 55.4 °F 94% 29.87 in 1.2 mi West 5.8 mph - 0.09 in   Overcast
10:44 AM 57.2 °F - 55.4 °F 94% 29.87 in 4.0 mi West 5.8 mph - 0.09 in   Mostly Cloudy
10:53 AM 57.9 °F - 55.9 °F 93% 29.86 in 7.0 mi West 6.9 mph - 0.09 in   Mostly Cloudy
11:00 AM 60.8 °F - 57.2 °F 88% 29.86 in 8.0 mi WSW 6.9 mph - N/A   Mostly Cloudy
11:53 AM 60.1 °F - 55.9 °F 86% 29.85 in 10.0 mi WNW 11.5 mph - N/A   Overcast
12:53 PM 60.1 °F - 54.0 °F 80% 29.85 in 10.0 mi NNW 10.4 mph - N/A   Overcast
1:01 PM 60.8 °F - 53.6 °F 77% 29.85 in 10.0 mi NW 10.4 mph - N/A   Mostly Cloudy
1:53 PM 62.1 °F - 52.0 °F 70% 29.85 in 10.0 mi WNW 9.2 mph - N/A   Mostly Cloudy
2:53 PM 62.1 °F - 48.9 °F 62% 29.85 in 10.0 mi NW 9.2 mph - N/A   Clear
3:53 PM 60.1 °F - 48.9 °F 67% 29.86 in 10.0 mi NNW 5.8 mph - N/A   Clear
4:53 PM 55.0 °F - 46.9 °F 74% 29.88 in 10.0 mi Calm Calm - N/A   Clear
5:53 PM 48.9 °F - 46.9 °F 93% 29.91 in 10.0 mi NNW 3.5 mph - N/A   Clear
6:53 PM 48.0 °F - 46.0 °F 93% 29.92 in 10.0 mi North 3.5 mph - N/A   Clear
7:53 PM 48.9 °F - 46.0 °F 90% 29.94 in 10.0 mi North 5.8 mph - N/A   Clear
8:53 PM 43.0 °F - 42.1 °F 97% 29.95 in 8.0 mi Calm Calm - N/A   Clear
9:53 PM 45.0 °F - 43.0 °F 93% 29.96 in 6.0 mi Calm Calm - N/A   Mostly Cloudy
10:53 PM 44.1 °F 41.5 °F 43.0 °F 96% 29.96 in 6.0 mi ENE 4.6 mph - N/A   Mostly Cloudy
11:53 PM 44.1 °F 42.5 °F 43.0 °F 96% 29.95 in 6.0 mi East 3.5 mph - N/A   Clear